Time,TemperatureF,DewpointF,PressureIn,WindDirection,WindDirectionDegrees,WindSpeedMPH,WindSpeedGustMPH,Humidity,HourlyPrecipIn,Conditions,Clouds,dailyrainin,SoftwareType,DateUTC
2013-06-09 00:05:00,60.3,54.4,29.72,ESE,112,1.1,-999.0,81,-99.99,,,0.00,Acu-Link.com,2013-06-09 05:05:00,
2013-06-09 00:20:00,60.3,54.4,29.72,SE,135,2.7,-999.0,81,-99.99,,,0.00,Acu-Link.com,2013-06-09 05:20:00,
2013-06-09 00:37:00,60.4,54.5,29.72,NE,45,4.2,-999.0,81,-99.99,,,0.00,Acu-Link.com,2013-06-09 05:37:00,
2013-06-09 00:53:00,60.3,54.4,29.72,NE,45,1.7,-999.0,81,-99.99,,,0.00,Acu-Link.com,2013-06-09 05:53:00,
2013-06-09 01:09:00,60.4,54.5,29.72,ESE,112,2.2,-999.0,81,-99.99,,,0.00,Acu-Link.com,2013-06-09 06:09:00,
2013-06-09 01:24:00,60.4,54.2,29.71,East,90,3.7,-999.0,80,-99.99,,,0.00,Acu-Link.com,2013-06-09 06:24:00,
2013-06-09 01:39:00,59.4,53.9,29.71,NE,45,1.7,-999.0,82,-99.99,,,0.00,Acu-Link.com,2013-06-09 06:39:00,
2013-06-09 01:55:00,58.6,53.5,29.70,SE,135,3.2,-999.0,83,-99.99,,,0.00,Acu-Link.com,2013-06-09 06:55:00,
2013-06-09 02:10:00,58.3,53.5,29.70,NNW,337,1.1,-999.0,84,-99.99,,,0.00,Acu-Link.com,2013-06-09 07:10:00,
2013-06-09 02:25:00,57.7,53.5,29.70,SE,135,1.7,-999.0,86,-99.99,,,0.00,Acu-Link.com,2013-06-09 07:25:00,
2013-06-09 02:40:00,57.6,53.8,29.69,ENE,67,1.7,-999.0,87,-99.99,,,0.00,Acu-Link.com,2013-06-09 07:40:00,
2013-06-09 02:56:00,57.2,53.7,29.69,ESE,112,1.7,-999.0,88,-99.99,,,0.01,Acu-Link.com,2013-06-09 07:56:00,
2013-06-09 03:11:00,56.8,53.6,29.68,ESE,112,2.2,-999.0,89,-99.99,,,0.02,Acu-Link.com,2013-06-09 08:11:00,
2013-06-09 03:57:00,56.7,54.1,29.67,NNE,22,4.2,-999.0,91,-99.99,,,0.06,Acu-Link.com,2013-06-09 08:57:00,
2013-06-09 04:12:00,56.7,54.1,29.66,ESE,112,3.2,-999.0,91,-99.99,,,0.08,Acu-Link.com,2013-06-09 09:12:00,
2013-06-09 04:27:00,56.7,54.1,29.65,NE,45,2.7,-999.0,91,-99.99,,,0.09,Acu-Link.com,2013-06-09 09:27:00,
2013-06-09 04:42:00,56.7,54.1,29.65,ESE,112,3.7,-999.0,91,-99.99,,,0.10,Acu-Link.com,2013-06-09 09:42:00,
2013-06-09 04:58:00,56.5,53.9,29.64,NNW,337,2.7,-999.0,91,-99.99,,,0.11,Acu-Link.com,2013-06-09 09:58:00,
2013-06-09 05:13:00,56.5,53.9,29.64,SE,135,3.2,-999.0,91,-99.99,,,0.15,Acu-Link.com,2013-06-09 10:13:00,
2013-06-09 05:28:00,56.5,53.9,29.64,SE,135,2.2,-999.0,91,-99.99,,,0.17,Acu-Link.com,2013-06-09 10:28:00,
2013-06-09 05:43:00,56.5,53.9,29.63,ESE,112,2.7,-999.0,91,-99.99,,,0.18,Acu-Link.com,2013-06-09 10:43:00,
2013-06-09 05:58:00,56.5,53.9,29.62,SE,135,3.2,-999.0,91,-99.99,,,0.20,Acu-Link.com,2013-06-09 10:58:00,
2013-06-09 06:13:00,56.3,53.7,29.63,ESE,112,3.7,-999.0,91,-99.99,,,0.24,Acu-Link.com,2013-06-09 11:13:00,
2013-06-09 06:28:00,56.1,53.5,29.62,ENE,67,3.7,-999.0,91,-99.99,,,0.25,Acu-Link.com,2013-06-09 11:28:00,
2013-06-09 06:44:00,55.9,53.3,29.62,NE,45,2.2,-999.0,91,-99.99,,,0.27,Acu-Link.com,2013-06-09 11:44:00,
2013-06-09 06:59:00,55.9,53.6,29.62,SSW,202,3.2,-999.0,92,-99.99,,,0.29,Acu-Link.com,2013-06-09 11:59:00,
2013-06-09 07:14:00,55.9,53.6,29.62,ESE,112,3.7,-999.0,92,-99.99,,,0.31,Acu-Link.com,2013-06-09 12:14:00,
2013-06-09 07:29:00,55.8,53.5,29.62,West,270,2.2,-999.0,92,-99.99,,,0.35,Acu-Link.com,2013-06-09 12:29:00,
2013-06-09 07:45:00,55.8,53.5,29.62,ESE,112,2.2,-999.0,92,-99.99,,,0.37,Acu-Link.com,2013-06-09 12:45:00,
2013-06-09 08:00:00,55.8,53.5,29.62,SE,135,3.2,-999.0,92,-99.99,,,0.38,Acu-Link.com,2013-06-09 13:00:00,
2013-06-09 08:15:00,55.6,53.3,29.61,West,270,3.2,-999.0,92,-99.99,,,0.39,Acu-Link.com,2013-06-09 13:15:00,
2013-06-09 08:30:00,55.6,53.3,29.61,South,180,3.7,-999.0,92,-99.99,,,0.43,Acu-Link.com,2013-06-09 13:30:00,
2013-06-09 08:45:00,55.6,53.3,29.62,East,90,3.7,-999.0,92,-99.99,,,0.44,Acu-Link.com,2013-06-09 13:45:00,
2013-06-09 09:01:00,55.6,53.3,29.62,ENE,67,2.7,-999.0,92,-99.99,,,0.45,Acu-Link.com,2013-06-09 14:01:00,
2013-06-09 09:16:00,55.6,53.3,29.62,SSE,157,2.7,-999.0,92,-99.99,,,0.45,Acu-Link.com,2013-06-09 14:16:00,
2013-06-09 09:46:00,55.8,53.5,29.62,SSE,157,5.8,-999.0,92,-99.99,,,0.45,Acu-Link.com,2013-06-09 14:46:00,
2013-06-09 10:01:00,55.8,53.5,29.62,South,180,2.2,-999.0,92,-99.99,,,0.45,Acu-Link.com,2013-06-09 15:01:00,
2013-06-09 10:17:00,55.8,53.5,29.62,WNW,292,4.2,-999.0,92,-99.99,,,0.45,Acu-Link.com,2013-06-09 15:17:00,
2013-06-09 10:32:00,56.1,53.8,29.62,East,90,4.7,-999.0,92,-99.99,,,0.45,Acu-Link.com,2013-06-09 15:32:00,
2013-06-09 10:47:00,56.3,53.7,29.62,West,270,3.7,-999.0,91,-99.99,,,0.45,Acu-Link.com,2013-06-09 15:47:00,
2013-06-09 11:02:00,56.3,53.7,29.62,WNW,292,2.2,-999.0,91,-99.99,,,0.45,Acu-Link.com,2013-06-09 16:02:00,
2013-06-09 11:17:00,56.3,54.0,29.63,SE,135,4.2,-999.0,92,-99.99,,,0.47,Acu-Link.com,2013-06-09 16:17:00,
2013-06-09 11:32:00,56.3,54.0,29.63,SW,225,2.2,-999.0,92,-99.99,,,0.49,Acu-Link.com,2013-06-09 16:32:00,
2013-06-09 11:48:00,56.1,53.8,29.63,SE,135,2.2,-999.0,92,-99.99,,,0.51,Acu-Link.com,2013-06-09 16:48:00,
2013-06-09 12:03:00,56.1,53.8,29.63,SW,225,2.7,-999.0,92,-99.99,,,0.51,Acu-Link.com,2013-06-09 17:03:00,
2013-06-09 12:18:00,56.3,54.0,29.63,East,90,1.7,-999.0,92,-99.99,,,0.51,Acu-Link.com,2013-06-09 17:18:00,
2013-06-09 12:33:00,57.0,54.7,29.63,SSE,157,3.7,-999.0,92,-99.99,,,0.51,Acu-Link.com,2013-06-09 17:33:00,
2013-06-09 12:48:00,57.4,55.1,29.63,SE,135,2.7,-999.0,92,-99.99,,,0.51,Acu-Link.com,2013-06-09 17:48:00,
2013-06-09 13:04:00,57.7,55.1,29.64,ESE,112,0.0,-999.0,91,-99.99,,,0.51,Acu-Link.com,2013-06-09 18:04:00,
2013-06-09 13:19:00,58.1,55.5,29.64,NNE,22,2.2,-999.0,91,-99.99,,,0.51,Acu-Link.com,2013-06-09 18:19:00,
2013-06-09 13:34:00,58.3,55.7,29.64,NNE,22,3.2,-999.0,91,-99.99,,,0.51,Acu-Link.com,2013-06-09 18:34:00,
2013-06-09 13:49:00,58.8,55.9,29.64,East,90,2.2,-999.0,90,-99.99,,,0.51,Acu-Link.com,2013-06-09 18:49:00,
2013-06-09 14:04:00,58.6,55.7,29.63,ESE,112,2.2,-999.0,90,-99.99,,,0.51,Acu-Link.com,2013-06-09 19:04:00,
2013-06-09 14:20:00,58.5,55.6,29.64,SSE,157,2.2,-999.0,90,-99.99,,,0.51,Acu-Link.com,2013-06-09 19:20:00,
2013-06-09 14:35:00,58.8,55.6,29.64,East,90,3.2,-999.0,89,-99.99,,,0.51,Acu-Link.com,2013-06-09 19:35:00,
2013-06-09 14:50:00,58.6,55.4,29.64,SE,135,4.2,-999.0,89,-99.99,,,0.51,Acu-Link.com,2013-06-09 19:50:00,
2013-06-09 15:05:00,59.0,55.8,29.64,East,90,2.2,-999.0,89,-99.99,,,0.51,Acu-Link.com,2013-06-09 20:05:00,
2013-06-09 15:20:00,59.5,56.3,29.64,SE,135,2.2,-999.0,89,-99.99,,,0.51,Acu-Link.com,2013-06-09 20:20:00,
2013-06-09 15:35:00,58.8,55.6,29.64,NNE,22,0.0,-999.0,89,-99.99,,,0.51,Acu-Link.com,2013-06-09 20:35:00,
2013-06-09 15:51:00,59.2,55.6,29.64,SE,135,1.7,-999.0,88,-99.99,,,0.51,Acu-Link.com,2013-06-09 20:51:00,
2013-06-09 16:21:00,58.8,55.6,29.65,East,90,2.2,-999.0,89,-99.99,,,0.51,Acu-Link.com,2013-06-09 21:21:00,
2013-06-09 16:36:00,58.6,55.7,29.65,ESE,112,1.1,-999.0,90,-99.99,,,0.51,Acu-Link.com,2013-06-09 21:36:00,
2013-06-09 17:07:00,59.0,55.8,29.65,NW,315,6.3,-999.0,89,-99.99,,,0.51,Acu-Link.com,2013-06-09 22:07:00,
2013-06-09 17:22:00,59.5,56.3,29.65,SE,135,2.7,-999.0,89,-99.99,,,0.51,Acu-Link.com,2013-06-09 22:22:00,
2013-06-09 17:37:00,58.6,55.4,29.66,ESE,112,1.1,-999.0,89,-99.99,,,0.51,Acu-Link.com,2013-06-09 22:37:00,
2013-06-09 17:52:00,58.8,55.9,29.66,SSE,157,3.2,-999.0,90,-99.99,,,0.51,Acu-Link.com,2013-06-09 22:52:00,
2013-06-09 18:07:00,58.6,55.7,29.65,South,180,2.2,-999.0,90,-99.99,,,0.51,Acu-Link.com,2013-06-09 23:07:00,
2013-06-09 18:23:00,58.8,55.9,29.66,ESE,112,1.7,-999.0,90,-99.99,,,0.51,Acu-Link.com,2013-06-09 23:23:00,
2013-06-09 18:38:00,58.8,55.9,29.66,NNW,337,3.2,-999.0,90,-99.99,,,0.51,Acu-Link.com,2013-06-09 23:38:00,
2013-06-09 18:53:00,59.0,56.1,29.67,North,0,0.0,-999.0,90,-99.99,,,0.51,Acu-Link.com,2013-06-09 23:53:00,
2013-06-09 19:08:00,58.8,55.9,29.67,NNW,337,0.0,-999.0,90,-99.99,,,0.51,Acu-Link.com,2013-06-10 00:08:00,
2013-06-09 19:24:00,58.8,55.9,29.67,NE,45,0.0,-999.0,90,-99.99,,,0.51,Acu-Link.com,2013-06-10 00:24:00,
2013-06-09 19:39:00,58.6,56.0,29.67,NW,315,0.0,-999.0,91,-99.99,,,0.51,Acu-Link.com,2013-06-10 00:39:00,
2013-06-09 19:54:00,58.6,56.0,29.67,SE,135,2.2,-999.0,91,-99.99,,,0.51,Acu-Link.com,2013-06-10 00:54:00,
2013-06-09 20:09:00,58.6,56.0,29.68,NNE,22,1.1,-999.0,91,-99.99,,,0.51,Acu-Link.com,2013-06-10 01:09:00,
2013-06-09 20:25:00,58.3,55.7,29.67,SSW,202,1.7,-999.0,91,-99.99,,,0.51,Acu-Link.com,2013-06-10 01:25:00,
2013-06-09 20:40:00,58.1,55.5,29.68,ESE,112,0.0,-999.0,91,-99.99,,,0.51,Acu-Link.com,2013-06-10 01:40:00,
2013-06-09 20:56:00,58.1,55.5,29.68,NNW,337,0.0,-999.0,91,-99.99,,,0.51,Acu-Link.com,2013-06-10 01:56:00,
2013-06-09 21:11:00,58.1,55.5,29.69,WNW,292,2.2,-999.0,91,-99.99,,,0.51,Acu-Link.com,2013-06-10 02:11:00,
2013-06-09 21:26:00,57.7,55.4,29.69,NE,45,0.0,-999.0,92,-99.99,,,0.51,Acu-Link.com,2013-06-10 02:26:00,
2013-06-09 21:42:00,57.7,55.4,29.70,West,270,1.1,-999.0,92,-99.99,,,0.51,Acu-Link.com,2013-06-10 02:42:00,
2013-06-09 21:57:00,57.6,55.3,29.70,West,270,0.0,-999.0,92,-99.99,,,0.51,Acu-Link.com,2013-06-10 02:57:00,
2013-06-09 22:13:00,57.4,55.1,29.69,NW,315,0.0,-999.0,92,-99.99,,,0.51,Acu-Link.com,2013-06-10 03:13:00,
2013-06-09 22:28:00,57.2,54.9,29.70,NNW,337,0.0,-999.0,92,-99.99,,,0.51,Acu-Link.com,2013-06-10 03:28:00,
2013-06-09 22:43:00,57.0,54.7,29.70,WNW,292,0.0,-999.0,92,-99.99,,,0.51,Acu-Link.com,2013-06-10 03:43:00,
2013-06-09 22:59:00,57.0,54.7,29.70,West,270,0.0,-999.0,92,-99.99,,,0.51,Acu-Link.com,2013-06-10 03:59:00,
2013-06-09 23:14:00,57.0,54.7,29.70,West,270,0.0,-999.0,92,-99.99,,,0.51,Acu-Link.com,2013-06-10 04:14:00,
2013-06-09 23:29:00,56.8,54.5,29.70,ENE,67,0.0,-999.0,92,-99.99,,,0.51,Acu-Link.com,2013-06-10 04:29:00,
2013-06-09 23:46:00,56.8,54.5,29.71,NE,45,0.0,-999.0,92,-99.99,,,0.51,Acu-Link.com,2013-06-10 04:46:00,